Weather History for Yellowstone, WY

Change the Weather History Date:

Wednesday, February 13, 2013

  Actual Average Record
Temperature  
Mean Temperature 22 °F 14 °F  
Max Temperature 27 °F 27 °F 35 °F (2011)
Min Temperature 16 °F 2 °F -15 °F (2002)
Degree Days  
Heating Degree Days 43 51  
Month to date heating degree days 640 672  
Since 1 July heating degree days 7059 7203  
Cooling Degree Days 0 0  
Month to date cooling degree days 0 0  
Year to date cooling degree days 0 0  
Moisture  
Dew Point 15 °F    
Average Humidity 80    
Maximum Humidity 92    
Minimum Humidity 68    
Precipitation  
Precipitation 0.01 in 0.05 in 0.25 in (2004)
Month to date precipitation 0.14 0.66  
Year to date precipitation 1.56 2.77  
Sea Level Pressure  
Sea Level Pressure 30.18 in    
Wind  
Wind Speed 5 mph (West)    
Max Wind Speed 14 mph    
Max Gust Speed 28 mph    
T = Trace of Precipitation, MM = Missing Value Source: NWS Daily Summary

Daily Weather History Graph

Daily Weather History Graph

Search for Another Location

Airport:

Trip Planner

Search our weather history database for the weather conditions in past years. The results will help you decide how hot, cold, wet, or windy it might be!

Date:

Astronomy

Feb. 13, 2013 Rise Set
Actual Time 7:24 AM MST 5:48 PM MST
Civil Twilight 6:54 AM MST 6:18 PM MST
Nautical Twilight 6:20 AM MST 6:52 PM MST
Astronomical Twilight 5:46 AM MST 7:26 PM MST
Moon 8:44 AM MST (2/13) 10:07 PM MST (2/13)
Length of Visible Light 11h 24m
Length of Day
10h 23m
Waxing Crescent, 14% of the Moon is Illuminated
Feb 13
Waxing Crescent
Feb 17
First Quarter
Feb 25
Full
Mar 4
Last Quarter
Mar 11
New

Hourly Weather History & Observations

Time (MST) Temp. Windchill Dew Point Humidity Pressure Visibility Wind Dir Wind Speed Gust Speed Precip Events Conditions
12:56 AM 16.0 °F 7.4 °F 12.9 °F 88% 30.28 in - West 5.8 mph - N/A   Unknown
1:56 AM 16.0 °F - 14.0 °F 92% 30.28 in - Calm Calm - N/A   Unknown
2:56 AM 16.0 °F - 14.0 °F 92% 30.23 in - Calm Calm - N/A   Unknown
3:56 AM 17.1 °F - 14.0 °F 88% 30.21 in - Calm Calm - N/A   Unknown
4:56 AM 18.0 °F 12.7 °F 14.0 °F 84% 30.21 in - Variable 3.5 mph - N/A   Unknown
5:56 AM 18.0 °F 12.7 °F 14.0 °F 84% 30.21 in - Variable 3.5 mph - N/A   Unknown
6:56 AM 18.0 °F - 14.0 °F 84% 30.21 in - Calm Calm - 0.01 in   Unknown
7:56 AM 18.0 °F - 14.0 °F 84% 30.21 in - Calm Calm - N/A   Unknown
8:56 AM 19.0 °F 13.9 °F 14.0 °F 81% 30.22 in - Variable 3.5 mph - N/A   Unknown
9:56 AM 21.9 °F - 15.1 °F 75% 30.18 in - Calm Calm - N/A   Unknown
10:56 AM 24.1 °F 14.4 °F 16.0 °F 71% 30.19 in - West 9.2 mph - N/A   Unknown
11:56 AM 24.1 °F 13.7 °F 17.1 °F 75% 30.17 in - West 10.4 mph 21.9 mph N/A   Unknown
12:56 PM 26.1 °F 17.6 °F 17.1 °F 69% 30.14 in - West 8.1 mph 23.0 mph N/A   Unknown
1:56 PM 25.0 °F 14.8 °F 16.0 °F 69% 30.13 in - WSW 10.4 mph 21.9 mph N/A   Unknown
2:56 PM 23.0 °F 13.9 °F 17.1 °F 78% 30.16 in - West 8.1 mph 17.3 mph N/A   Unknown
3:56 PM 21.9 °F 13.4 °F 17.1 °F 82% 30.16 in - Variable 6.9 mph 16.1 mph N/A   Unknown
4:56 PM 21.9 °F 13.4 °F 17.1 °F 82% 30.16 in - Variable 6.9 mph 19.6 mph N/A   Unknown
5:56 PM 21.0 °F 11.4 °F 16.0 °F 81% 30.15 in - West 8.1 mph 18.4 mph N/A   Unknown
6:56 PM 21.0 °F 11.4 °F 16.0 °F 81% 30.17 in - West 8.1 mph - N/A   Unknown
7:56 PM 21.9 °F 14.5 °F 17.1 °F 82% 30.17 in - Variable 5.8 mph - N/A   Unknown
8:56 PM 21.9 °F 13.4 °F 17.1 °F 82% 30.16 in - Variable 6.9 mph - N/A   Unknown
9:56 PM 21.9 °F 13.4 °F 16.0 °F 78% 30.14 in - West 6.9 mph - N/A   Unknown
10:56 PM 21.9 °F 13.4 °F 16.0 °F 78% 30.14 in - WNW 6.9 mph - N/A   Unknown
11:56 PM 21.9 °F 15.7 °F 16.0 °F 78% 30.15 in - WNW 4.6 mph - N/A   Unknown